Flag for Norway Weather past 2 weeks in Tromsø, Norway

Now
66 °F

Sunny.


Feels Like: 66 °F
Forecast: 47 / 63 °F
Wind: 5 mph from South

Location: Tromso / Langnes

Current Time: Jul 28, 2015 at 12:24:16 PM

Latest Report: Jul 28, 2015 at 11:00 AM


Visibility: 28 mi

Pressure: 29.50 "Hg

Humidity: 58%

Dew point: 51 °F

Location of TromsøLocation

Historic Weather in Tromsø — Graph

°F

Tromsø temperature yesterday

Maximum temperature yesterday: 61 °F (at 7:00 PM)
Minimum temperature yesterday: 54 °F (at 4:00 AM)
Average temperature yesterday: 58 °F

Past Weeks' High & Low Weather Summary

 TemperatureHumidityPressure
High67 °F (Jul 19, 3:00 PM)95% (Jul 21, 5:00 AM)29.96 "Hg (Jul 21, 5:00 AM)
Low45 °F (Jul 15, 3:00 AM)46% (Jul 19, 3:00 PM)29.44 "Hg (Jul 19, 7:00 AM)
Average53 °F76%29.74 "Hg
* Reported Jul 13 11:00 AM — Jul 28 11:00 AM, Tromsø, Weather by CustomWeather, © 2015

Note: Actual official high and low records may vary slightly from our data, if they occured in-between our weather recording intervals... More about our weather records

Advertising

Tromsø weather history for previous 24 hours

 ConditionsComfort  
Time TempWeatherWind HumidityBarometerVisibility
11:00 AM
Tue, Jul 28
66 °FSunny.5 mph58%29.50 "Hg28 mi
10:00 AM64 °FPartly sunny.3 mph61%29.50 "Hg22 mi
8:00 AM61 °FOvercast.2 mph63%29.47 "Hg28 mi
7:00 AM61 °FScattered clouds.1 mph67%29.47 "Hg31 mi
6:00 AM60 °FScattered clouds.1 mph69%29.47 "Hg31 mi
5:00 AM58 °FPartly sunny.5 mph71%29.47 "Hg28 mi
3:00 AM58 °FOvercast.3 mph71%29.44 "Hg31 mi
2:00 AM57 °FScattered clouds.5 mph74%29.44 "Hg31 mi
1:00 AM57 °FClear.2 mph72%29.44 "Hg31 mi
12:00 AM59 °FPassing clouds.5 mph69%29.44 "Hg31 mi
11:00 PM
Mon, Jul 27
58 °FOvercast.2 mph70%29.44 "Hg31 mi
10:00 PM58 °FOvercast.7 mph72%29.44 "Hg31 mi
9:00 PM59 °FPassing clouds.8 mph68%29.44 "Hg31 mi
8:00 PM60 °FOvercast.6 mph68%29.44 "Hg28 mi
7:00 PM61 °FPartly sunny.5 mph65%29.44 "Hg31 mi
6:00 PM61 °FOvercast.6 mph67%29.44 "Hg31 mi
5:00 PM61 °FSunny.5 mph65%29.47 "Hg31 mi
4:00 PM61 °FPassing clouds.5 mph63%29.47 "Hg25 mi
3:00 PM61 °FScattered clouds.7 mph61%29.47 "Hg28 mi
2:00 PM61 °FScattered clouds.5 mph58%29.50 "Hg19 mi
1:00 PM60 °FPartly sunny.2 mph60%29.50 "Hg25 mi
12:00 PM58 °FOvercast.3 mph64%29.54 "Hg19 mi
Weather by CustomWeather, © 2015

See weather overviewHow to use our weather pages